Year,Month,Day,Hour,Minute,Value (Times are PST for temperature in C)
2009,04,14,13,22,9.80
2009,04,14,13,23,9.80
2009,04,14,13,24,9.80
2009,04,14,13,25,9.80
2009,04,14,13,26,9.90
2009,04,14,13,27,9.90
2009,04,14,13,28,10.00
2009,04,14,13,29,10.10
2009,04,14,13,30,10.20
2009,04,14,13,31,10.20
2009,04,14,13,32,10.30
2009,04,14,13,33,10.30
2009,04,14,13,34,10.30
2009,04,14,13,35,10.30
2009,04,14,13,36,10.30
2009,04,14,13,37,10.30
2009,04,14,13,38,10.30
2009,04,14,13,39,10.20
2009,04,14,13,40,10.20
2009,04,14,13,41,10.10
2009,04,14,13,42,10.10
2009,04,14,13,43,10.10
2009,04,14,13,44,10.10
2009,04,14,13,45,10.10
2009,04,14,13,46,10.10
2009,04,14,13,47,10.10
2009,04,14,13,48,10.20
2009,04,14,13,49,10.20
2009,04,14,13,50,10.30
2009,04,14,13,51,10.30
2009,04,14,13,52,10.30
2009,04,14,13,53,10.40
2009,04,14,13,54,10.40
2009,04,14,13,55,10.50
2009,04,14,13,56,10.60
2009,04,14,13,57,10.60
2009,04,14,13,58,10.60
2009,04,14,13,59,10.60
2009,04,14,14,00,10.60
2009,04,14,14,01,10.60
2009,04,14,14,02,10.60
2009,04,14,14,03,10.60
2009,04,14,14,04,10.60
2009,04,14,14,05,10.60
2009,04,14,14,06,10.60
2009,04,14,14,07,10.60
2009,04,14,14,08,10.60
2009,04,14,14,09,10.60
2009,04,14,14,10,10.60
2009,04,14,14,11,10.60
2009,04,14,14,12,10.60
2009,04,14,14,13,10.60
2009,04,14,14,14,10.60
2009,04,14,14,15,10.60
2009,04,14,14,16,10.60
2009,04,14,14,17,10.60
2009,04,14,14,18,10.70
2009,04,14,14,19,10.70
2009,04,14,14,20,10.70
2009,04,14,14,21,10.80
2009,04,14,14,22,10.80
2009,04,14,14,23,10.80
2009,04,14,14,24,10.80
2009,04,14,14,25,10.80
2009,04,14,14,26,10.70
2009,04,14,14,27,10.70
2009,04,14,14,28,10.60
2009,04,14,14,29,10.60
2009,04,14,14,30,10.60
2009,04,14,14,31,10.70
2009,04,14,14,32,10.70
2009,04,14,14,33,10.60
2009,04,14,14,34,10.60
2009,04,14,14,35,10.60
2009,04,14,14,36,10.60
2009,04,14,14,37,10.60
2009,04,14,14,38,10.40
2009,04,14,14,39,10.40
2009,04,14,14,40,10.60
2009,04,14,14,41,10.60
2009,04,14,14,42,10.60
2009,04,14,14,43,10.70
2009,04,14,14,44,10.70
2009,04,14,14,45,10.80
2009,04,14,14,46,10.80
2009,04,14,14,47,10.80
2009,04,14,14,48,10.80
2009,04,14,14,49,10.80
2009,04,14,14,50,10.80
2009,04,14,14,51,10.70
2009,04,14,14,52,10.70
2009,04,14,14,53,10.70
2009,04,14,14,54,10.70
2009,04,14,14,55,10.60
2009,04,14,14,56,10.60
2009,04,14,14,57,10.60
2009,04,14,14,58,10.60
2009,04,14,14,59,10.50
2009,04,14,15,00,10.40
2009,04,14,15,01,10.40
2009,04,14,15,02,10.40
2009,04,14,15,03,10.40
2009,04,14,15,04,10.30
2009,04,14,15,05,10.30
2009,04,14,15,06,10.30
2009,04,14,15,07,10.30
2009,04,14,15,08,10.40
2009,04,14,15,09,10.50
2009,04,14,15,10,10.60
2009,04,14,15,11,10.60
2009,04,14,15,12,10.60
2009,04,14,15,13,10.60
2009,04,14,15,14,10.70
2009,04,14,15,15,10.80
2009,04,14,15,16,10.90
2009,04,14,15,17,11.00
2009,04,14,15,18,11.10
2009,04,14,15,19,11.10
2009,04,14,15,20,11.20
2009,04,14,15,21,11.20
2009,04,14,15,22,11.20
2009,04,14,15,23,11.10
2009,04,14,15,24,11.10
2009,04,14,15,25,11.00
2009,04,14,15,26,10.90
2009,04,14,15,27,10.90
2009,04,14,15,28,10.90
2009,04,14,15,29,10.80
2009,04,14,15,30,10.80
2009,04,14,15,31,10.70
2009,04,14,15,32,10.80
2009,04,14,15,33,10.80
2009,04,14,15,34,10.90
2009,04,14,15,35,10.90
2009,04,14,15,36,10.90
2009,04,14,15,37,10.90
2009,04,14,15,38,10.80
2009,04,14,15,39,10.80
2009,04,14,15,40,10.80
2009,04,14,15,41,10.80
2009,04,14,15,42,10.80
2009,04,14,15,43,10.80
2009,04,14,15,44,10.80
2009,04,14,15,45,10.80
2009,04,14,15,46,10.80
2009,04,14,15,47,10.80
2009,04,14,15,48,10.80
2009,04,14,15,49,10.80
2009,04,14,15,50,10.70
2009,04,14,15,51,10.60
2009,04,14,15,52,10.60
2009,04,14,15,53,10.50
2009,04,14,15,54,10.40
2009,04,14,15,55,10.40
2009,04,14,15,56,10.30
2009,04,14,15,57,10.30
2009,04,14,15,58,10.30
2009,04,14,15,59,10.30
2009,04,14,16,00,10.30
2009,04,14,16,01,10.30
2009,04,14,16,02,10.30
2009,04,14,16,03,10.30
2009,04,14,16,04,10.30
2009,04,14,16,05,10.30
2009,04,14,16,06,10.30
2009,04,14,16,07,10.30
2009,04,14,16,08,10.30
2009,04,14,16,09,10.30
2009,04,14,16,10,10.30
2009,04,14,16,11,10.30
2009,04,14,16,12,10.30
2009,04,14,16,13,10.30
2009,04,14,16,14,10.30
2009,04,14,16,15,10.40
2009,04,14,16,16,10.40
2009,04,14,16,17,10.40
2009,04,14,16,18,10.40
2009,04,14,16,19,10.40
2009,04,14,16,20,10.30
2009,04,14,16,21,10.30
2009,04,14,16,22,10.30
2009,04,14,16,23,10.30
2009,04,14,16,24,10.30
2009,04,14,16,25,10.20
2009,04,14,16,26,10.20
2009,04,14,16,27,10.20
2009,04,14,16,28,10.10
2009,04,14,16,29,10.10
2009,04,14,16,30,10.10
2009,04,14,16,31,10.10
2009,04,14,16,32,10.10
2009,04,14,16,33,10.10
2009,04,14,16,34,10.10
2009,04,14,16,35,10.10
2009,04,14,16,36,10.10
2009,04,14,16,37,10.10
2009,04,14,16,38,10.10
2009,04,14,16,39,10.10
2009,04,14,16,40,10.10
2009,04,14,16,41,10.10
2009,04,14,16,42,10.10
2009,04,14,16,43,10.10
2009,04,14,16,44,10.10
2009,04,14,16,45,10.10
2009,04,14,16,46,10.00
2009,04,14,16,47,9.90
2009,04,14,16,48,9.90
2009,04,14,16,49,9.90
2009,04,14,16,50,9.90
2009,04,14,16,51,9.90
2009,04,14,16,52,9.90
2009,04,14,16,53,9.90
2009,04,14,16,54,9.90
2009,04,14,16,55,9.90
2009,04,14,16,56,9.90
2009,04,14,16,57,9.90
2009,04,14,16,58,9.90
2009,04,14,16,59,10.10
2009,04,14,17,00,10.10
2009,04,14,17,01,10.20
2009,04,14,17,02,10.30
2009,04,14,17,03,10.30
2009,04,14,17,04,10.40
2009,04,14,17,05,10.40
2009,04,14,17,06,10.40
2009,04,14,17,07,10.40
2009,04,14,17,08,10.40
2009,04,14,17,09,10.40
2009,04,14,17,10,10.50
2009,04,14,17,11,10.60
2009,04,14,17,12,10.60
2009,04,14,17,13,10.60
2009,04,14,17,14,10.60
2009,04,14,17,15,10.60
2009,04,14,17,16,10.60
2009,04,14,17,17,10.60
2009,04,14,17,18,10.70
2009,04,14,17,19,10.70
2009,04,14,17,20,10.70
2009,04,14,17,21,10.70
2009,04,14,17,22,10.70
2009,04,14,17,23,10.70
2009,04,14,17,24,10.70
2009,04,14,17,25,10.80
2009,04,14,17,26,10.80
2009,04,14,17,27,10.80
2009,04,14,17,28,10.80
2009,04,14,17,29,10.80
2009,04,14,17,30,10.80
2009,04,14,17,31,10.80
2009,04,14,17,32,10.80
2009,04,14,17,33,10.80
2009,04,14,17,34,10.90
2009,04,14,17,35,10.90
2009,04,14,17,36,10.90
2009,04,14,17,37,10.90
2009,04,14,17,38,10.90
2009,04,14,17,39,10.90
2009,04,14,17,40,10.90
2009,04,14,17,41,10.90
2009,04,14,17,42,10.90
2009,04,14,17,43,10.90
2009,04,14,17,44,10.90
2009,04,14,17,45,10.90
2009,04,14,17,46,10.90
2009,04,14,17,47,10.90
2009,04,14,17,48,10.90
2009,04,14,17,49,10.90
2009,04,14,17,50,10.90
2009,04,14,17,51,10.90
2009,04,14,17,52,10.90
2009,04,14,17,53,10.90
2009,04,14,17,54,10.90
2009,04,14,17,55,10.90
2009,04,14,17,56,10.90
2009,04,14,17,57,10.90
2009,04,14,17,58,10.90
2009,04,14,17,59,10.90
2009,04,14,18,00,10.90
2009,04,14,18,01,10.80
2009,04,14,18,02,10.80
2009,04,14,18,03,10.80
2009,04,14,18,04,10.80
2009,04,14,18,05,10.80
2009,04,14,18,06,10.80
2009,04,14,18,07,10.80
2009,04,14,18,08,10.80
2009,04,14,18,09,10.80
2009,04,14,18,10,10.80
2009,04,14,18,11,10.80
2009,04,14,18,12,10.80
2009,04,14,18,13,10.80
2009,04,14,18,14,10.80
2009,04,14,18,15,10.80
2009,04,14,18,16,10.80
2009,04,14,18,17,10.80
2009,04,14,18,18,10.80
2009,04,14,18,19,10.80
2009,04,14,18,20,10.80
2009,04,14,18,21,10.80
2009,04,14,18,22,10.80
2009,04,14,18,23,10.80
2009,04,14,18,24,10.80
2009,04,14,18,25,10.80
2009,04,14,18,26,10.80
2009,04,14,18,27,10.80
2009,04,14,18,28,10.80
2009,04,14,18,29,10.80
2009,04,14,18,30,10.80
2009,04,14,18,31,10.70
2009,04,14,18,32,10.70
2009,04,14,18,33,10.70
2009,04,14,18,34,10.70
2009,04,14,18,35,10.60
2009,04,14,18,36,10.60
2009,04,14,18,37,10.60
2009,04,14,18,38,10.60
2009,04,14,18,39,10.60
2009,04,14,18,40,10.60
2009,04,14,18,41,10.60
2009,04,14,18,42,10.60
2009,04,14,18,43,10.60
2009,04,14,18,44,10.60
2009,04,14,18,45,10.60
2009,04,14,18,46,10.60
2009,04,14,18,47,10.60
2009,04,14,18,48,10.60
2009,04,14,18,49,10.60
2009,04,14,18,50,10.60
2009,04,14,18,51,10.60
2009,04,14,18,52,10.60
2009,04,14,18,53,10.60
2009,04,14,18,54,10.60
2009,04,14,18,55,10.60
